Location: Newark
(31.5350°N, 35.0986°E)
Time: 23:18:40
(UTC+00:00)

Transit 4A - Pass Details

Date: 23 October 2019
Orbit: 868 x 976 km, 66.8° (Epoch: 16 November)

Event Time Altitude Azimuth Distance (km) Brightness Sun altitude
Rises 00:54:43 0° 196° (SSW) 3,657 - -37.5°
Reaches altitude 10° 00:57:18 10° 194° (SSW) 2,711 - -37.0°
Maximum altitude 01:03:35 68° 112° (ESE) 1,037 - -35.7°
Exits shadow 01:05:19 48° 50° (NE) 1,243 8.7 -35.3°
Drops below altitude 10° 01:09:49 10° 31° (NNE) 2,683 10.7 -34.3°
Sets 01:12:21 0° 29° (NNE) 3,617 11.4 -33.8°
